User: anonymous   Login
Location: Biltmore Gardens
(41.6070°N, 83.4666°W)
Time: 09:12:38
(UTC+00:00)
Language:

Explorer 7 - Orbit

View from above orbital plane
View from above orbital plane
View from above satellite
View from above satellite

Ground track
Ground track

The orbit data is extracted from the following two-line orbital elements,

1 00022U 59009A   21108.84286386  .00000801  00000-0  81960-4 0  9991
2 00022  50.2832 108.8231 0138790 345.7223  13.9820 14.95492174516060
Epoch (UTC): 18 April 2021 20:13:43
Eccentricity: 0.0138790
inclination: 50.2832°
perigee height: 484 km
apogee height: 677 km
right ascension of ascending node: 108.8231°
argument of perigee: 345.7223°
revolutions per day: 14.95492174
mean anomaly at epoch: 13.9820°
orbit number at epoch: 51606

The dashed part of the orbit path shows where the satellite is in the earth's shadow,  

DLR